TimeEST,TemperatureF,Dew PointF,Humidity,Sea Level PressureIn,VisibilityMPH,Wind Direction,Wind SpeedMPH,Gust SpeedMPH,PrecipitationIn,Events,Conditions,WindDirDegrees,DateUTC
12:51 AM,21.0,5.0,50,29.95,10.0,WNW,6.9,-,N/A,,Scattered Clouds,300,2013-01-02 05:51:00
1:51 AM,19.9,5.0,52,29.96,10.0,WNW,5.8,-,N/A,,Scattered Clouds,300,2013-01-02 06:51:00
2:51 AM,19.0,5.0,54,29.98,10.0,WNW,8.1,-,N/A,,Scattered Clouds,300,2013-01-02 07:51:00
3:51 AM,18.0,6.1,60,29.98,10.0,WNW,5.8,-,N/A,,Scattered Clouds,290,2013-01-02 08:51:00
4:51 AM,17.1,6.1,62,29.96,10.0,WNW,6.9,-,N/A,,Clear,300,2013-01-02 09:51:00
5:51 AM,16.0,7.0,68,29.97,10.0,West,8.1,-,N/A,,Scattered Clouds,270,2013-01-02 10:51:00
6:51 AM,16.0,7.0,68,29.97,10.0,West,10.4,-,N/A,,Scattered Clouds,280,2013-01-02 11:51:00
7:51 AM,17.1,6.1,62,29.96,10.0,West,10.4,-,N/A,,Scattered Clouds,280,2013-01-02 12:51:00
8:51 AM,19.9,7.0,57,29.97,10.0,West,9.2,-,N/A,,Scattered Clouds,280,2013-01-02 13:51:00
9:51 AM,23.0,7.0,50,29.99,10.0,West,11.5,-,N/A,,Partly Cloudy,280,2013-01-02 14:51:00
10:51 AM,26.1,9.0,49,29.98,10.0,West,12.7,-,N/A,,Scattered Clouds,260,2013-01-02 15:51:00
11:51 AM,28.4,10.4,47,29.96,10.0,WNW,12.7,20.7,N/A,,Scattered Clouds,290,2013-01-02 16:51:00
12:51 PM,28.9,10.9,47,29.94,10.0,West,12.7,18.4,N/A,,Scattered Clouds,270,2013-01-02 17:51:00
1:51 PM,30.0,10.9,45,29.93,10.0,West,10.4,21.9,N/A,,Scattered Clouds,280,2013-01-02 18:51:00
2:51 PM,30.0,10.9,45,29.96,10.0,NW,11.5,27.6,N/A,,Mostly Cloudy,310,2013-01-02 19:51:00
3:51 PM,28.9,10.0,45,29.98,10.0,WNW,13.8,21.9,N/A,,Scattered Clouds,290,2013-01-02 20:51:00
4:51 PM,28.0,10.0,47,30.01,10.0,NW,5.8,-,N/A,,Scattered Clouds,310,2013-01-02 21:51:00
5:51 PM,27.0,10.9,51,30.03,10.0,NW,4.6,-,N/A,,Scattered Clouds,320,2013-01-02 22:51:00
6:51 PM,26.1,9.0,49,30.06,10.0,WNW,5.8,-,N/A,,Partly Cloudy,290,2013-01-02 23:51:00
7:51 PM,25.0,9.0,51,30.06,10.0,NW,6.9,-,N/A,,Mostly Cloudy,310,2013-01-03 00:51:00
8:51 PM,24.1,9.0,53,30.07,10.0,Calm,Calm,-,N/A,,Mostly Cloudy,0,2013-01-03 01:51:00
9:51 PM,23.0,10.0,58,30.09,10.0,NNW,8.1,-,N/A,,Mostly Cloudy,340,2013-01-03 02:51:00
10:51 PM,19.9,7.0,57,30.10,10.0,North,6.9,-,N/A,,Overcast,350,2013-01-03 03:51:00
11:51 PM,19.0,6.1,57,30.11,10.0,NW,9.2,-,N/A,,Overcast,320,2013-01-03 04:51:00